Fort Lauderdale Executive Airport Fort Lauderdale US
ICAO: KFXE
IATA: FXE
Category: Medium
Scheduled Services: No

Elevation: 13 ft
TransAlt. 18000 ft.

Airport Communications:
MIAMI APP/DEP:119.7
ATIS:119.85
CLNC DEL:127.95
EXECUTIVE GND:121.75
EXECUTIVE TWR:120.9
UNICOM:122.95

KFXE Zoom In..

If you have problems with the map follow the link
https://www.worldairports.se/pages/airport.php?
ICAO=KFXE

Runways:

(A) RW 08 length 6002 ft width 100 ft
ILS 111.10 / hdg 87

(B) RW 13 length 4000 ft width 100 ft
---- / hdg 132

(C) RW 26 length 6002 ft width 100 ft
---- / hdg 267

(D) RW 31 length 4000 ft width 100 ft
---- / hdg 312

Location; KFXE
Day. 16 / Time. 02.53 Zulu
* Altimeter: 30.03
* Temperature: 21° c. 69.8°f.
* Wind from: 320° Speed 10 kn.
Dewpoint: 18° c.
Visibility: 10 Statute Miles.
Clouds: Few 5500 ft.

KFXE 160253Z 32010KT 10SM FEW055 21/18 A3003 RMK AO2 SLP170 T02110183 51017


Wind From 320°
Speed 10 kn.

 
 
jpsmedia.com for Web Design worldairports.se 2018   terms of use